Regional Weather Roundup
Issued by NWS

Home | Current Version | Previous Version | Text Only | Print | Product List | Glossary On
Versions: 1 2 3 4 5 6 7 8 9 10 11 12 13 14 15 16 17 18 19 20 21 22 23 24 25 26 27 28 29 30 31 32 33 34 35 36 37 38 39 40 41 42 43 44 45 46 47 48 49 50
000
ASUS46 KSTO 230415
RWRCA

NORTHERN AND CENTRAL CA REGIONAL WEATHER ROUNDUP
NATIONAL WEATHER SERVICE SACRAMENTO CA
800 PM PST MON JAN 22 2018

NOTE: FAIR INDICATES FEW OR NO CLOUDS BELOW 12,000 FEET WITH NO
SIGNIFICANT WEATHER AND/OR OBSTRUCTIONS TO VISIBILITY.

CAZ001-003-230500-
NORTHWEST AREA

CITY           SKY/WX    TMP DP  RH WIND       PRES   REMARKS
CRESCENT CITY  CLEAR     45  42  89 CALM      30.32R
UKIAH          PTCLDY    45  41  86 CALM      30.31S
$$

CAZ006-505>513-230500-
BAY AREA

CITY           SKY/WX    TMP DP  RH WIND       PRES   REMARKS
SANTA ROSA     CLOUDY    51  47  86 SE3       30.31R
SAN RAFAEL     N/A       51  MM  MM MISG
NAPA           CLOUDY    48  44  86 E5        30.32R
CONCORD        CLOUDY    51  46  83 NE7       30.33R
OAKLAND CITY   N/A      MM  MM  MM MISG
OAKLAND        MOCLDY    51  47  86 NE9       30.31R
SAN FRAN CITY  N/A       52  MM  75 MISG
SAN FRAN ARPT  PTCLDY    51  45  79 NW3       30.30R
LIVERMORE      CLOUDY    49  47  93 E7        30.30R FOG
HAYWARD        CLOUDY    53  44  71 N6        30.30R
REDWOOD CITY   N/A       47  MM  86 MISG
MOFFETT ARPT   CLEAR     50  44  80 W5        30.31R
SAN JOSE ARPT  PTCLDY    51  46  83 W10       30.30R
$$
CAZ034-037-514>518-230500-
CENTRAL COAST

CITY           SKY/WX    TMP DP  RH WIND       PRES   REMARKS
WATSONVILLE    CLEAR     47  46  97 NW3       30.28S FOG
SALINAS        CLEAR     47  46  97 N5        30.28S
MONTEREY       CLEAR     47  43  86 E5        30.28S
SAN LUIS OBISP PTCLDY    54  51  90 NW8       30.25F
SANTA MARIA    CLEAR     52  52 100 W7        30.25F
$$
CAZ015-016-230500-
NORTHERN SACRAMENTO VALLEY

CITY           SKY/WX    TMP DP  RH WIND       PRES   REMARKS
REDDING        CLOUDY    46  45  96 NW3       30.34R
RED BLUFF      CLOUDY    48  45  89 NW5       30.35R
OROVILLE       CLOUDY    47  46  97 CALM      30.35S FOG
$$
CAZ016>018-230500-
SOUTHERN SACRAMENTO VALLEY

CITY           SKY/WX    TMP DP  RH WIND       PRES   REMARKS
AUBURN         CLOUDY    45  45 100 NW3       30.30S VSB 1/2
BEALE AFB      CLOUDY    48  47  95 NW9       30.32R
LINCOLN        CLOUDY   N/A N/A N/A NW5       30.32R
MARYSVILLE     CLOUDY    48  46  93 NW9       30.34R
SAC INTL ARPT  CLOUDY    48  48 100 NW10      30.33R
MATHER AIRPORT CLOUDY    50  48  93 NW7       30.31R
DOWNTOWN SAC   N/A       49  MM  MM MISG
SAC EXEC ARPT  CLOUDY    49  48  97 NW9       30.33R
VACAVILLE      MOCLDY    48  46  93 N9        30.34R
TRAVIS AFB     MOCLDY    47  46  99 N9        30.32R
$$
CAZ019>021-230500-
SAN JOAQUIN VALLEY

CITY           SKY/WX    TMP DP  RH WIND       PRES   REMARKS
STOCKTON       CLOUDY    51  49  92 N10       30.30R FOG
MODESTO        CLOUDY    53  48  83 NW7       30.28S
MERCED         CLOUDY    51  47  86 N5        30.28R
LEMOORE        PTCLDY    49  39  68 E3        30.28F
FRESNO         MOCLDY    54  41  61 W3        30.29S
HANFORD        CLEAR     45  41  86 CALM      30.28F
PORTERVILLE    CLEAR     44  39  82 S3        30.29
BAKERSFIELD    CLEAR     52  36  54 E7        30.27F
$$
CAZ011-012-071-230500-
NORTHERN MOUNTAINS

CITY           SKY/WX    TMP DP  RH WIND       PRES   REMARKS
YREKA          CLEAR     31  29  92 CALM      30.31R
MOUNT SHASTA   PTCLDY    30  28  92 CALM      30.29S
ALTURAS        CLEAR     29  27  92 CALM      30.29R FOG
$$
CAZ011-012-071-230500-
SIERRA NEVADA MTNS

CITY           SKY/WX    TMP DP  RH WIND       PRES   REMARKS
BLUE CANYON    CLEAR     34  33  96 CALM      30.27R
TRUCKEE        FOG       28  28 100 CALM      30.27R VSB 1/2
TAHOE VLY ARPT CLEAR     28  26  92 CALM      30.25S
MAMMOTH LAKES  FAIR      27  17  66 CALM      30.27S
$$



USA.gov is the U.S. government's official web portal to all federal, state and local government web resources and services.